Погода в Елабуге

Погода в Елабуге : погода сейчас, прогноз погоды и архив. Всё, что Вы хотите узнать о погоде в Елабуге!

Поиск расширенной информации на нашем сайте:

Другие новости

Новости СМИ2

Главная страница сайта

Новости сайта

02.10.2013

Напоминаем, что на нашем новом сайте вы можете получить высокодетализированные прогнозы погоды по пунктам России, СНГ и мира (включающие важные для авиации метеовеличины, такие как направление и скорость ветра, видимость, явления погоды, количество и форма облачности, нижняя и верхняя граница облачности), а также ознакомиться с разнообразными материалами по авиационной метеорологии и подборкой полезных ссылок на эту тему.

Сайт Метеоцентр.Азия посвящён разработке технологий оптимизации авиаметеорологического обслуживания, включая проектирование и перспективное создание нескольких автоматизированных авиаметеорологических систем:
- система выпуска высокодетальных прогностических карт явлений погоды для нижнего воздушного пространства по России и ближнему зарубежью;
- система верификации прогнозов TAF (выпускаемых синоптиками официальных АМСГ РФ и ближнего зарубежья) и AUTOTAF (выпускаемых сайтом Метеоцентр.Азия) - выявление ошибок, онлайн-сопоставление с фактической погодой METAR, автоматическое внесение коррективов в прогнозы при резком отклонении фактической погоды от прогноза, подсчёт оправдываемости прогнозов по элементам и в целом;
- система обработки, анализа и отображения авиаметеорологической информации для применения провайдерами метеорологической информации.


Погода в Елабуге - сегодня

Время (UTC), дата Ветер
(°,м/с) 
Видим.   Явления Облачность Т
(°С)
Тd
(°С)
f(%) Тe
(°С)
Pmin
(гПа)
dP
(гПа)
Po
(мм)
O2
(г/м3)
Тmin Tmax R s Состояние
почвы
12 25.05.17 150 (ЮВ) 10 км    4/0 средняя 
[Ac lent]
+22.7 +6 34 +23  1015.3  -0.8  754  279           
15 25.05.17 140 (ЮВ) 10 км    3/0 средняя 
[Ac lent]
+22.9 +5.8 33 +23  1014.1  -1.2  753  279    +23.7       
18 25.05.17 170 (Ю) 10 км    8/8 600 м 
[Sc]
+17 +8.5 57 +18  1014.3  0.1  753  284           
21 25.05.17 тихо ()   10 км    8/0 средняя 
[Ac lent]
+13.9 +9.4 74 +14  1013.6  -0.8  752  287           
00 26.05.17 140 (ЮВ) 10 км    6/0 средняя 
[Ac lent]
+12.5 +8.9 79 +14  1013.1  -0.5  752  288           
03 26.05.17 190 (Ю) 10 км    3/0 средняя 
[Ac lent]
+17.8 +9.3 57 +19  1013.2  0.3  752  283  +12.5        сухая 
06 26.05.17 210 (ЮЗ) 10 км    3/3 600 м 
[Cu hum]
+22.3 +9.4 44 +23  1012.9  0.1  752  278           
09 26.05.17 220 (ЮЗ) 3{10}  10 км    6/6 600 м 
[Cu med, cong]
+24.6 +7.7 34 +25  1012  -0.8  751  276           
12 26.05.17 250 (З) 5{12}  10 км    6/6 600 м 
[Cu med, cong]
+25.1 +6.8 31 +25  1010.4  -1.6  750  276           
15 26.05.17 250 (З) 4{10}  10 км    8/6 600 м верхняя 
[Cu med, cong|Ci fib]
+21.7 +8.4 42 +22  1010.2  -1.6  750  278    +25.8       
18 26.05.17 тихо ()   10 км    8/6 600 м верхняя 
[Cu med, cong|Ci fib]
+18.6 +7.5 48 +19  1009.7  -0.7  749  281           
21 26.05.17 100 (В) 10 км    6/0 средняя 
[Ac As]
+12.4 +8.5 77 +14  1009  -0.9  749  287           
00 27.05.17 200 (Ю) 10 км    4/0 средняя 
[Ac As]
+14 +6.3 60 +15  1008.1  -0.8  748  286           
06 27.05.17 220 (ЮЗ) 10 км    8/5 600 м верхняя 
[Sc|Ci fib]
+18.6 +9.2 54 +19  1006  -1  747  280           
09 27.05.17 220 (ЮЗ) 10 км  {дождь}  5/5 600 м 
[Sc]
+22 +9.7 46 +23  1003.8  -2  745  276           
15 27.05.17 330 (СЗ) 10 км  {гроза, ливн. осадки}  8/4 600 м средняя 
[Sc|Ac As]
+15.8 +11.4 75 +20  1003.3  0.1  745  281    +23.2  15     
18 27.05.17 330 (СЗ) 4000 м  дождь  10/10 600 м 
[Sc]
+12.5 +10.1 85 +13  1003.8  0.4  745  285           
21 27.05.17 340 (С) 4{13}  4000 м  дождь  10/10 600 м 
[Sc]
+7.7 +5.5 86 +6  1005.8  1.8  746  292           
06 28.05.17 330 (СЗ) 10 км    8/4 600 м средняя 
[Sc|Ac lent]
+6.2 -3.4 50 +5  1010.1  0.9  749  296           
09 28.05.17 330 (СЗ) 10 км    10/10 600 м 
[Sc]
+6.4 -3.6 49 +5  1010.7  0.6  750  296           
12 28.05.17 330 (СЗ) 10 км    8/4 600 м средняя 
[Sc|Ac lent]
+7.1 -5.1 41 +6  1011.2  0.5  750  295           
15 28.05.17 350 (С) 10 км    10/0 средняя 
[Ac As]
+5.4 -4.9 47 +4  1011.7  0.4  750  297    +7.4       
18 28.05.17 320 (СЗ) 10 км    3/0 верхняя 
[Ci fib]
+2.3 -2.7 69 +3  1012.6  0.8  751  300           
21 28.05.17 320 (СЗ) 10 км    3/0 верхняя 
[Ci fib]
+1.7 -4.3 64 +1  1013.2  0.5  751  301           
00 29.05.17 330 (СЗ) 10 км    ясно 
+1.3 -4.9 63 +1  1014  0.8  752  302           
Время (UTC), дата Ветер
(°,м/с) 
Видим.   Явления Облачность Т
(°С)
Тd
(°С)
f(%) Тe
(°С)
Pmin
(гПа)
dP
(гПа)
Po
(мм)
O2
(г/м3)
Тmin Tmax R s Состояние
почвы

Для получения пояснительной информации подведите курсор к названию столбца.

ПОГОДА в Елабуге - архив

Всё, что Вы хотите узнать о погоде в Елабуге - удобно и подробно!

Выберите нужную дату (начиная с 1 января 2015* года) и нажмите кнопку "Найти".
Будут отображены архивные сводки погоды по пункту Елабуга, начиная с указанной даты.


Отображать данные в формате CSV (для использования в таблицах Excel)


Внимание! Наш архив погоды предназначен исключительно для личного некоммерческого использования в познавательных целях. Если Вам необходимы официальные справки о состоянии погоды (для производственных, юридических, коммерческих и т.п. целей), обращайтесь в органы Росгидромета.

*Примечание: данная дата относится к архиву по метеостанциям СССР (Россия, СНГ, Балтия).
Архив по метеостанциям Зарубежной Европы и Азии (кроме Китая) хранится 10 дней, по другим регионам земного шара (Китай, Африка, Америка, Австралия, Океания) - 1 день.

Елабуга - район местоположения метеостанции


Название, широта, долгота, высота метеостанции:
Елабуга 55.7°ш. 52.1°д. 90 м над ур. моря [Российская Федерация]

Дополнительная информация

В oтличие oт бoльшинства пoгoдных сайтoв мы публикуем пoдрoбную метеoинфoрмацию в детальнoм прoфессиoнальнoм фoрмате.

Характеристики температуры и влажнoсти вoздуха измеряются на высoте 2 м в тени вдали oт зданий и деревьев.
Скoрoсть ветра измеряется на высoте 10 м (на урoвне рoста челoвека скoрoсть ветра ниже в 1.5-2 раза). Если метеoстанция нахoдится в гoрoде или в лесу, тo скoрoсть ветра занижена на 2-4 м/с пo сравнению с oткрытым местoм. Скoрoсть ветра над акватoриями крупных рек и oзёр, а также на вершинах хoлмoв на 2-5 м/с выше, чем в oбычных услoвиях.
Атмoсфернoе давление в разных тoчках местнoсти мoжет значительнo oтличаться oт давления на метеoстанции, в зависимoсти oт услoвий рельефа (при пoдъёме на 10 м давление пoнижается примернo на 1 мм рт.ст.).